STARLINK-2685, 48468

Orbit data source: Space-Track

STARLINK-2685, 48468 is a payload satellite owned by SpaceX/Seattle (US) in LEO that was launched on Sun, 09 May 2021 UTC via an FALCON 9 launch vehicle from the Air Force Eastern Test Range (AFETR). Payload-class satellites include a variety of spacecraft equipped with specific instruments for various scientific and technological missions. These include communications satellites like Starlink; space stations such as the ISS; scientific satellites like the Hubble; Earth observation satellites from companies like Planet Labs, Umbra, and HawkEye 360; GPS; miniature CubeSats for education and research; and military/defense satellites.

Loading next visibility...
Identifier
48468, 2021-040AS
Orbit
LEO
Country
Flag of USUS
Related business
Manufacturer
SpaceX/Seattle
Mission
Operational Commercial Communications
Bus & Motor
STARLINK, Unknown motor
Mass
260 kg wet, ~248 kg dry
Launch date (UTC)
2021-05-09 (5 years ago)
Launch vehicle
FALCON 9
Launch site
Air Force Eastern Test Range (AFETR)
Object type
Payload
Rocket body
Debris
Shape & HBR
Box + 1 Pan, 10.1 m
Radar Cross Section
13.562 m², Large (>1 m²)

Expand to show TLE details & history
Last TLE update: 2 days ago

TLE from 2 days ago
0 STARLINK-2685
1 48468U 21040AS  26171.15564704 -.00002823  00000-0 -79174-4 0  9995
2 48468  53.1606  74.6778 0001278 104.2203 255.8940 15.31721862282205
Epoch: 2026-06-20T03:44Z
TLE epoch observation values (Epoch: 2026-06-20T03:44:07.904Z)
Latitude
-0.00005°
Longitude
110.27051°
Altitude
471.789 km
Speed
7.631 km/s
True Right ascension
04h 58m 42s
True Declination
0° 00' 00"
Sunlit
Object was in daylight at epoch
Visualization orbit readout
Latitude
Unknown
Longitude
Unknown
Altitude
Unknown
Speed
Unknown
Apparent Right ascension
Unknown
Apparent Declination
Unknown
Sunlit
N/A
Visualization observer readout
Local Sidereal Time
21:24:14
Azimuth
Unknown
Elevation
Unknown
Doppler factor
Unknown
Orbital elements
Apogee altitude
471.807 km
Perigee altitude
470.056 km
Semi-major axis
6,849.068 km
Eccentricity
0.00013
Inclination
53.1606°
RAAN
74.6778°
Arg. of periapsis
104.2203°
True anomaly
255.8798°
Mean anomaly
255.894°
Eccentric anomaly
255.8869°
Mean motion
3.82909 °/min
Orbital period
94.02 mins
BSTAR
-0.000079174
Loading maneuver chart data...
Computing Atmospheric mass density...

Documentation

Showing up to 5 results
|